Weather Roundup
Issued by NWS Corpus Christi, TX

Home | Current Version | Previous Version | Text Only | Print | Product List | Glossary On
Versions: 1 2 3 4 5 6 7 8 9 10 11 12 13 14 15 16 17 18 19 20 21 22 23 24 25 26 27 28 29 30 31 32 33 34 35 36 37 38 39 40 41 42 43 44 45 46 47 48 49 50
000
ASUS44 KCRP 192210
HRRCRP

SOUTH TEXAS REGIONAL WEATHER ROUNDUP
NATIONAL WEATHER SERVICE CORPUS CHRISTI TX
500 PM CDT SAT APR 19 2014


TXZ229>244-192300-
...CORPUS CHRISTI AREA OBSERVATIONS...

CITY           SKY/WX    TMP DP  RH WIND       PRES   REMARKS
CORPUS CHRISTI PTSUNNY   78  60  53 E16       30.08S
NAS CORPUS CHR MOSUNNY   75  63  66 SE17      30.08F
ROCKPORT       SUNNY     76  63  64 SE15      30.09F
KINGSVILLE NAS MOSUNNY   78  62  57 SE13      30.07F
ALICE          MOSUNNY   78  59  51 SE13G23   30.05F
FALFURRIAS     CLOUDY    76  59  55 E12G17    30.05F
$$

...VICTORIA AREA OBSERVATIONS...

CITY           SKY/WX    TMP DP  RH WIND       PRES   REMARKS
VICTORIA       MOSUNNY   79  57  46 SE13G24   30.08F
BEEVILLE       FAIR      81  57  43 SE16G25   30.07F
PLEASANTON     CLOUDY    80  53  39 SE9       30.05F
SAN ANTONIO    CLOUDY    79  53  40 SE14G21   30.06F
$$

...LAREDO AREA OBSERVATIONS...

CITY           SKY/WX    TMP DP  RH WIND       PRES   REMARKS
LAREDO         CLOUDY    80  58  46 SE15      30.04F
COTULLA        CLOUDY    81  53  37 SE10      30.03F
DEL RIO        LGT RAIN  77  52  41 SE15G25   30.01F
MCALLEN        CLOUDY    78  63  59 SE13      30.04F
HEBBRONVILLE   CLOUDY    77  59  53 SE12      30.05F
$$

...OTHER TEXAS OBSERVATIONS...

CITY           SKY/WX    TMP DP  RH WIND       PRES   REMARKS
BROWNSVILLE    PTSUNNY   78  63  59 SE15      30.06F
HOUSTON        PTSUNNY   77  57  50 SE8       30.09F
COL. STATION   PTSUNNY   77  56  48 SE8       30.08F
AUSTIN         CLOUDY    77  54  44 SE12      30.06F
WACO           CLOUDY    75  55  49 S10       30.09F
FORT WORTH     PTSUNNY   76  52  43 SE12      30.08F
WICHITA FALLS  CLOUDY    77  50  38 SE13      30.04F
LUBBOCK        LGT RAIN  61  58  90 SW14      30.11R FOG
EL PASO        TSTM      71  46  40 N6        29.99R
$$

...MARINE OBSERVATIONS...

STATION/POSITION TIME  SKY/WX   TEMP    WIND        PRES    VSBY  WAVE   SWELL
                                AIR SEA DIR/SP/G                  HT/PER HT/PER
                 (UTC)          (F)     (DEG/KT/KT) (MB)    (MI)  (FT/S) (FT/S)
PORT ARANSAS     2200            68 69  100/ 11/ 12 1019.2F
BUOY 90 E PORT A NOT AVBL
BUOY 45 SE BAFFI 2200            69 68  100/ 12/ 16 1018.3F         4/ 8   2/ 8
BUOY 200 E PT IS NOT AVBL
BUOY 15 E GALVES 2200            67 68  110/  8/ 10 1020.0F         2/ 5   2/ 5
$$



USA.gov is the U.S. government's official web portal to all federal, state and local government web resources and services.